User: anonymous   Login
Location: Oroua River
(40.4333°S, 175.4333°E)
Time: 04:46:53
(UTC+00:00)
Language:

Cosmos 1459 Rocket - Orbit

View from above orbital plane
View from above orbital plane
View from above satellite
View from above satellite

Ground track
Ground track

The orbit data is extracted from the following two-line orbital elements,

1 14059U 83042B   23151.35358443  .00000055  00000-0  39370-4 0  9999
2 14059  82.9727 247.8784 0041109 279.6854  79.9662 13.78838795 15073
Epoch (UTC): 31 May 2023 08:29:09
Eccentricity: 0.0041109
inclination: 82.9727°
perigee height: 938 km
apogee height: 998 km
right ascension of ascending node: 247.8784°
argument of perigee: 279.6854°
revolutions per day: 13.78838795
mean anomaly at epoch: 79.9662°
orbit number at epoch: 1507

The dashed part of the orbit path shows where the satellite is in the earth's shadow,  

DLR